Regional Weather Roundup
Issued by NWS

Home | Current Version | Previous Version | Graphics & Text | Print | Product List | Glossary Off
Versions: 1 2 3 4 5 6 7 8 9 10 11 12 13 14 15 16 17 18 19 20 21 22 23 24 25 26 27 28 29 30 31 32 33 34 35 36 37 38 39 40 41 42 43 44 45 46 47 48 49 50

267
ASUS43 KTOP 240308
RWRKS

WEATHER ROUNDUP FOR KANSAS
NATIONAL WEATHER SERVICE GOODLAND KS
1000 PM CDT FRI JUN 23 2017

NOTE:  "FAIR" INDICATES FEW OR NO CLOUDS BELOW 12,000 FEET WITH NO
SIGNIFICANT WEATHER AND/OR OBSTRUCTIONS TO VISIBILITY.

KSZ001>006-013>018-027>032-041>047-240400-
NORTHWEST KANSAS

CITY           SKY/WX    TMP DP  RH WIND       PRES   REMARKS
GOODLAND       CLEAR     59  49  69 N7        30.21R
HAYS           CLEAR     68  53  58 W6        30.12R
HILL CITY      PTCLDY    66  47  50 N10       30.13R
RUSSELL        CLEAR     69  49  48 NE6       30.09R
$$

KSZ061>065-074>080-084>089-240400-
SOUTHWEST KANSAS

CITY           SKY/WX    TMP DP  RH WIND       PRES   REMARKS
DODGE CITY     CLOUDY    67  54  63 CALM      30.15R
ELKHART          N/A     61  42  49 N7          N/A
GARDEN CITY    CLOUDY    67  50  54 NW3       30.18R
GREAT BEND     MOCLDY    68  58  70 W3        30.11R
LIBERAL        CLOUDY    69  47  45 NE8       30.19R
PRATT          CLOUDY    66  52  59 N3        30.12R
$$

KSZ066>073-081>083-090>101-240400-
SOUTHEAST KANSAS

CITY           SKY/WX    TMP DP  RH WIND       PRES   REMARKS
CHANUTE        CLEAR     72  51  47 N3        30.05R
COFFEYVILLE    CLOUDY    71  58  63 N6        30.03R
HUTCHINSON     CLOUDY    69  56  62 N3        30.08R
MEDICINE LODGE   N/A     70  53  54 CALM      30.10R
NEWTON         CLOUDY    72  49  44 NE6       30.10R
PARSONS        CLEAR     70  53  54 N5        30.05R
WICHITA INTL   CLOUDY    74  50  42 NE6       30.07R
WICHITA JABRA  CLOUDY    72  51  47 CALM      30.08R
WICHITA MCCONL CLOUDY    73  49  43 E3        30.08R
WINFIELD       CLOUDY    73  54  51 N6        30.09R
$$

KSZ007>012-019>026-033>040-048>060-102>105-240400-
NORTHEAST KANSAS

CITY           SKY/WX    TMP DP  RH WIND       PRES   REMARKS
CONCORDIA      CLEAR     67  49  52 N6        30.10R
EMPORIA        CLOUDY    68  54  60 NE5       30.07R
LAWRENCE       CLEAR     66  59  78 CALM      30.06R
MANHATTAN      CLEAR     69  53  56 N3        30.07R
MARYSVILLE     CLEAR     63  52  67 N3        30.09R
OLATHE IND     CLEAR     66  55  67 NW3       30.07R
OLATHE EXE     CLEAR     69  55  60 NW3       30.07R
SALINA         CLEAR     75  50  41 CALM      30.08R
TOPEKA BILLARD CLEAR     68  59  73 N3        30.06R
TOPEKA FORBES  CLEAR     70  56  61 CALM      30.07R
$$




USA.gov is the U.S. government's official web portal to all federal, state and local government web resources and services.